Location: Augustenthal
(51.7167°N, 10.2833°E)
Time: 08:29:41
(UTC+00:00)

Cosmos 2082 Rocket - Pass Details

Date: 18 May 2021
Orbit: 834 x 853 km, 71.0° (Epoch: 20 June)

Event Time Altitude Azimuth Distance (km) Brightness Sun altitude
Rises 19:53:20 0° 327° (NNW) 3,394 7.3 -6.1°
Reaches altitude 10° 19:55:49 10° 323° (NW) 2,457 6.4 -6.4°
Maximum altitude 20:01:16 53° 248° (WSW) 1,020 2.8 -7.0°
Drops below altitude 10° 20:06:43 10° 172° (S) 2,449 4.1 -7.6°
Enters shadow 20:08:11 - 169° (S) 3,000 4.6 -7.7°
